Regional Weather Roundup
Issued by NWS Northern Indiana

Home | Current Version | Previous Version | Text Only | Print | Product List | Glossary Off
Versions: 1 2 3 4 5 6 7 8 9 10 11 12 13 14 15 16 17 18 19 20 21 22 23 24 25 26 27 28 29 30 31 32 33 34 35 36 37 38 39 40 41 42 43 44 45 46 47 48 49 50

000
ASUS43 KIWX 140000
RWRIWX

KIWX WEATHER ROUNDUP
NATIONAL WEATHER SERVICE NORTHERN INDIANA
800 PM EDT SUN JUL 13 2014

NOTE: "FAIR" INDICATES FEW OR NO CLOUDS BELOW 12,000 FEET WITH NO
SIGNIFICANT WEATHER AND/OR OBSTRUCTIONS TO VISIBILITY.

* THESE STATIONS ARE NOT UNDER NWS QUALITY CONTROL. THEY ALSO MAY NOT
  REPORT WEATHER SUCH AS PRECIPITATION OR FOG.

INZ001>027-140100-
NORTHERN INDIANA

CITY           SKY/WX    TMP DP  RH WIND       PRES   REMARKS
GARY*          MOSUNNY   84  61  45 W14       29.89S
VALPARAISO     SUNNY     80  64  58 SW10      29.91R
6HR MIN TEMP:  79; 6HR MAX TEMP:  84;

SOUTH BEND     SUNNY     80  60  50 S5        29.90F
6HR MIN TEMP:  78; 6HR MAX TEMP:  82;

GOSHEN         SUNNY     79  60  52 W7        29.91S
6HR MIN TEMP:  77; 6HR MAX TEMP:  83;

ANGOLA*        SUNNY     81  61  50 W5        29.92R
FORT WAYNE     MOSUNNY   82  63  52 NW8       29.92R
6HR MIN TEMP:  82; 6HR MAX TEMP:  85;

PERU/GRISSOM   MOSUNNY   81  69  67 W9        29.93R
6HR MIN TEMP:  80; 6HR MAX TEMP:  83;


$$
INZ028>050-140100-
CENTRAL INDIANA

CITY           SKY/WX    TMP DP  RH WIND       PRES   REMARKS
LAFAYETTE      SUNNY     80  68  66 W7        29.92S
6HR MIN TEMP:  79; 6HR MAX TEMP:  83;

KOKOMO*        SUNNY     82  66  57 W8        29.93R
6HR MIN TEMP:  81; 6HR MAX TEMP:  84;

MUNCIE*        SUNNY     81  67  62 NW8       29.93R
6HR MIN TEMP:  79; 6HR MAX TEMP:  84;

INDIANAPOLIS   PTSUNNY   80  68  66 W10       29.92S
6HR MIN TEMP:  79; 6HR MAX TEMP:  84;


$$
MIZ043>046-050>051-056>058-064>065-071>073-077>080-140100-
SOUTHWEST LOWER MICHIGAN

CITY           SKY/WX    TMP DP  RH WIND       PRES   REMARKS
BATTLE CREEK   SUNNY     78  61  55 W7        29.90S
6HR MIN TEMP:  78; 6HR MAX TEMP:  81;

BENTON HARBOR  SUNNY     77  59  53 S6        29.88S
6HR MIN TEMP:  72; 6HR MAX TEMP:  79;

COLDWATER*     SUNNY     78  61  56 W5        29.91S
6HR MIN TEMP:  77; 6HR MAX TEMP:  82;

HILLSDALE*     SUNNY     78  57  49 W5        29.92R
6HR MIN TEMP:  77; 6HR MAX TEMP:  80;

HOLLAND        PTSUNNY   78  62  57 S3        29.88S
6HR MIN TEMP:  75; 6HR MAX TEMP:  80;

GRAND RAPIDS   MOSUNNY   77  61  57 W9        29.88S
6HR MIN TEMP:  75; 6HR MAX TEMP:  80;

KALAMAZOO      SUNNY     78  59  51 W6        29.90R
6HR MIN TEMP:  78; 6HR MAX TEMP:  82;

STURGIS*       SUNNY     79  63  57 CALM      29.91R
THREE RIVERS*  FAIR      78  64  61 W3        29.90S

$$
OHZ001>008-015>018-024>025-140100-
NORTHWEST OHIO

CITY           SKY/WX    TMP DP  RH WIND       PRES   REMARKS
DEFIANCE       SUNNY     82  64  54 VRB5      29.90R
6HR MIN TEMP:  82; 6HR MAX TEMP:  85;

FINDLAY        SUNNY     83  66  56 NW7       29.90R
6HR MIN TEMP:  82; 6HR MAX TEMP:  86;

TOLEDO EXPRESS SUNNY     82  62  50 W8        29.89R
6HR MIN TEMP:  81; 6HR MAX TEMP:  86;

TOLEDO METCALF MOSUNNY   82  62  50 W10       29.90R
6HR MIN TEMP:  82; 6HR MAX TEMP:  86;

LIMA           SUNNY     82  66  58 NW9       29.92R
6HR MIN TEMP:  82; 6HR MAX TEMP:  86;


$$
&&



USA.gov is the U.S. government's official web portal to all federal, state and local government web resources and services.